Time,TemperatureF,DewpointF,PressureIn,WindDirection,WindDirectionDegrees,WindSpeedMPH,WindSpeedGustMPH,Humidity,HourlyPrecipIn,Conditions,Clouds,dailyrainin,SolarRadiationWatts/m^2,SoftwareType,DateUTC
2013-10-24 00:00:00,38.5,29.6,29.69,WSW,248,0.0,3.0,70,0.00,,CLR,0.00,0.00,VWS V14.01,2013-10-24 04:00:00,
2013-10-24 00:05:00,38.8,29.9,29.69,WSW,248,0.0,3.0,70,0.00,,CLR,0.00,0.00,VWS V14.01,2013-10-24 04:05:00,
2013-10-24 00:10:00,38.9,29.6,29.69,WSW,248,0.0,0.0,69,0.00,,CLR,0.00,0.00,VWS V14.01,2013-10-24 04:10:00,
2013-10-24 00:15:00,39.1,29.8,29.69,WSW,248,0.0,3.0,69,0.00,,CLR,0.00,0.00,VWS V14.01,2013-10-24 04:15:00,
2013-10-24 00:20:00,39.2,29.9,29.69,WSW,248,0.0,0.0,69,0.00,,CLR,0.00,0.00,VWS V14.01,2013-10-24 04:20:00,
2013-10-24 00:25:00,39.2,29.9,29.69,WSW,248,0.0,0.0,69,0.00,,CLR,0.00,0.00,VWS V14.01,2013-10-24 04:25:00,
2013-10-24 00:30:00,39.3,29.6,29.69,WSW,248,0.0,2.0,68,0.00,,CLR,0.00,0.00,VWS V14.01,2013-10-24 04:30:00,
2013-10-24 00:35:00,39.3,29.6,29.69,West,270,0.0,5.0,68,0.00,,CLR,0.00,0.00,VWS V14.01,2013-10-24 04:35:00,
2013-10-24 00:40:00,39.5,29.8,29.69,NW,315,1.0,5.0,68,0.00,,CLR,0.00,0.00,VWS V14.01,2013-10-24 04:40:00,
2013-10-24 00:45:00,39.5,29.8,29.69,WSW,248,0.0,3.0,68,0.00,,CLR,0.00,0.00,VWS V14.01,2013-10-24 04:45:00,
2013-10-24 00:50:00,39.5,29.8,29.69,NW,315,1.0,6.0,68,0.00,,CLR,0.00,0.00,VWS V14.01,2013-10-24 04:50:00,
2013-10-24 00:55:00,39.4,29.7,29.69,West,270,1.0,7.0,68,0.00,,CLR,0.00,0.00,VWS V14.01,2013-10-24 04:55:00,
2013-10-24 01:00:00,39.3,29.6,29.69,North,0,1.0,4.0,68,0.00,,CLR,0.00,0.00,VWS V14.01,2013-10-24 05:00:00,
2013-10-24 01:05:00,39.2,29.5,29.69,WNW,292,1.0,4.0,68,0.00,,CLR,0.00,0.00,VWS V14.01,2013-10-24 05:05:00,
2013-10-24 01:10:00,39.2,29.5,29.69,WNW,292,0.0,5.0,68,0.00,,CLR,0.00,0.00,VWS V14.01,2013-10-24 05:10:00,
2013-10-24 01:15:00,39.2,29.5,29.69,NW,315,1.0,5.0,68,0.00,,CLR,0.00,0.00,VWS V14.01,2013-10-24 05:15:00,
2013-10-24 01:20:00,39.1,29.1,29.69,WSW,248,1.0,6.0,67,0.00,,CLR,0.00,0.00,VWS V14.01,2013-10-24 05:20:00,
2013-10-24 01:25:00,39.0,29.0,29.69,WSW,248,0.0,2.0,67,0.00,,CLR,0.00,0.00,VWS V14.01,2013-10-24 05:25:00,
2013-10-24 01:30:00,38.9,28.9,29.69,WSW,248,0.0,2.0,67,0.00,,CLR,0.00,0.00,VWS V14.01,2013-10-24 05:30:00,
2013-10-24 01:35:00,38.9,28.9,29.69,NW,315,1.0,5.0,67,0.00,,CLR,0.00,0.00,VWS V14.01,2013-10-24 05:35:00,
2013-10-24 01:40:00,38.8,28.8,29.69,WNW,292,0.0,3.0,67,0.00,,CLR,0.00,0.00,VWS V14.01,2013-10-24 05:40:00,
2013-10-24 01:45:00,38.7,28.7,29.70,West,270,0.0,3.0,67,0.00,,CLR,0.00,0.00,VWS V14.01,2013-10-24 05:45:00,
2013-10-24 01:50:00,38.6,28.6,29.70,WNW,292,1.0,5.0,67,0.00,,CLR,0.00,0.00,VWS V14.01,2013-10-24 05:50:00,
2013-10-24 01:55:00,38.5,28.5,29.70,West,270,1.0,6.0,67,0.00,,CLR,0.00,0.00,VWS V14.01,2013-10-24 05:55:00,
2013-10-24 02:00:00,38.6,28.2,29.70,WNW,292,3.0,7.0,66,0.00,,CLR,0.00,0.00,VWS V14.01,2013-10-24 06:00:00,
2013-10-24 02:05:00,38.6,28.2,29.70,WNW,292,0.0,0.0,66,0.00,,CLR,0.00,0.00,VWS V14.01,2013-10-24 06:05:00,
2013-10-24 02:10:00,38.6,28.2,29.70,WNW,292,0.0,0.0,66,0.00,,CLR,0.00,0.00,VWS V14.01,2013-10-24 06:10:00,
2013-10-24 02:15:00,38.6,28.2,29.71,WNW,292,0.0,0.0,66,0.00,,CLR,0.00,0.00,VWS V14.01,2013-10-24 06:15:00,
2013-10-24 02:20:00,38.6,28.2,29.71,WNW,292,0.0,0.0,66,0.00,,CLR,0.00,0.00,VWS V14.01,2013-10-24 06:20:00,
2013-10-24 02:25:00,38.6,28.2,29.71,WNW,292,0.0,0.0,66,0.00,,CLR,0.00,0.00,VWS V14.01,2013-10-24 06:25:00,
2013-10-24 02:30:00,38.6,28.2,29.70,WNW,292,0.0,0.0,66,0.00,,CLR,0.00,0.00,VWS V14.01,2013-10-24 06:30:00,
2013-10-24 02:35:00,38.6,28.2,29.70,WNW,292,0.0,0.0,66,0.00,,CLR,0.00,0.00,VWS V14.01,2013-10-24 06:35:00,
2013-10-24 02:40:00,38.6,28.2,29.70,WNW,292,0.0,0.0,66,0.00,,CLR,0.00,0.00,VWS V14.01,2013-10-24 06:40:00,
2013-10-24 02:45:00,38.6,28.2,29.71,WNW,292,0.0,0.0,66,0.00,,CLR,0.00,0.00,VWS V14.01,2013-10-24 06:45:00,
2013-10-24 02:50:00,38.6,28.2,29.71,WNW,292,0.0,0.0,66,0.00,,CLR,0.00,0.00,VWS V14.01,2013-10-24 06:50:00,
2013-10-24 02:55:00,38.6,28.2,29.71,WNW,292,0.0,0.0,66,0.00,,CLR,0.00,0.00,VWS V14.01,2013-10-24 06:55:00,
2013-10-24 03:00:00,38.6,28.2,29.72,WNW,292,0.0,0.0,66,0.00,,CLR,0.00,0.00,VWS V14.01,2013-10-24 07:00:00,
2013-10-24 03:05:00,38.6,28.2,29.72,WNW,292,0.0,0.0,66,0.00,,CLR,0.00,0.00,VWS V14.01,2013-10-24 07:05:00,
2013-10-24 03:10:00,38.6,28.2,29.72,WNW,292,0.0,0.0,66,0.00,,CLR,0.00,0.00,VWS V14.01,2013-10-24 07:10:00,
2013-10-24 03:15:00,38.6,28.2,29.72,WNW,292,0.0,0.0,66,0.00,,CLR,0.00,0.00,VWS V14.01,2013-10-24 07:15:00,
2013-10-24 03:20:00,38.6,28.2,29.72,WNW,292,0.0,0.0,66,0.00,,CLR,0.00,0.00,VWS V14.01,2013-10-24 07:20:00,
2013-10-24 03:25:00,38.6,28.2,29.72,WNW,292,0.0,0.0,66,0.00,,CLR,0.00,0.00,VWS V14.01,2013-10-24 07:25:00,
2013-10-24 03:30:00,38.6,28.2,29.73,WNW,292,0.0,0.0,66,0.00,,CLR,0.00,0.00,VWS V14.01,2013-10-24 07:30:00,
2013-10-24 03:35:00,38.6,28.2,29.73,WNW,292,0.0,0.0,66,0.00,,CLR,0.00,0.00,VWS V14.01,2013-10-24 07:35:00,
2013-10-24 03:40:00,38.6,28.2,29.73,WNW,292,0.0,0.0,66,0.00,,CLR,0.00,0.00,VWS V14.01,2013-10-24 07:40:00,
2013-10-24 03:45:00,38.6,28.2,29.74,WNW,292,0.0,0.0,66,0.00,,CLR,0.00,0.00,VWS V14.01,2013-10-24 07:45:00,
2013-10-24 03:50:00,38.6,28.2,29.74,WNW,292,0.0,0.0,66,0.00,,CLR,0.00,0.00,VWS V14.01,2013-10-24 07:50:00,
2013-10-24 03:55:00,38.6,28.2,29.74,WNW,292,0.0,0.0,66,0.00,,CLR,0.00,0.00,VWS V14.01,2013-10-24 07:55:00,
2013-10-24 04:00:00,38.6,28.2,29.74,WNW,292,0.0,0.0,66,0.00,,CLR,0.00,0.00,VWS V14.01,2013-10-24 08:00:00,
2013-10-24 04:05:00,38.6,28.2,29.74,WNW,292,0.0,0.0,66,0.00,,CLR,0.00,0.00,VWS V14.01,2013-10-24 08:05:00,
2013-10-24 04:10:00,38.6,28.2,29.74,WNW,292,0.0,0.0,66,0.00,,CLR,0.00,0.00,VWS V14.01,2013-10-24 08:10:00,
2013-10-24 04:15:00,38.6,28.2,29.74,WNW,292,0.0,0.0,66,0.00,,CLR,0.00,0.00,VWS V14.01,2013-10-24 08:15:00,
2013-10-24 04:20:00,38.6,28.2,29.74,WNW,292,0.0,0.0,66,0.00,,CLR,0.00,0.00,VWS V14.01,2013-10-24 08:20:00,
2013-10-24 04:25:00,38.6,28.2,29.74,WNW,292,0.0,0.0,66,0.00,,CLR,0.00,0.00,VWS V14.01,2013-10-24 08:25:00,
2013-10-24 04:30:00,38.6,28.2,29.75,WNW,292,0.0,0.0,66,0.00,,CLR,0.00,0.00,VWS V14.01,2013-10-24 08:30:00,
2013-10-24 04:35:00,38.6,28.2,29.75,WNW,292,0.0,0.0,66,0.00,,CLR,0.00,0.00,VWS V14.01,2013-10-24 08:35:00,
2013-10-24 04:40:00,38.6,28.2,29.75,WNW,292,0.0,0.0,66,0.00,,CLR,0.00,0.00,VWS V14.01,2013-10-24 08:40:00,
2013-10-24 04:45:00,38.6,28.2,29.75,WNW,292,0.0,0.0,66,0.00,,CLR,0.00,0.00,VWS V14.01,2013-10-24 08:45:00,
2013-10-24 04:50:00,38.6,28.2,29.75,WNW,292,0.0,0.0,66,0.00,,CLR,0.00,0.00,VWS V14.01,2013-10-24 08:50:00,
2013-10-24 04:55:00,38.6,28.2,29.75,WNW,292,0.0,0.0,66,0.00,,CLR,0.00,0.00,VWS V14.01,2013-10-24 08:55:00,
2013-10-24 05:00:00,38.6,28.2,29.76,WNW,292,0.0,0.0,66,0.00,,CLR,0.00,0.00,VWS V14.01,2013-10-24 09:00:00,
2013-10-24 05:05:00,38.6,28.2,29.76,WNW,292,0.0,0.0,66,0.00,,CLR,0.00,0.00,VWS V14.01,2013-10-24 09:05:00,
2013-10-24 05:10:00,38.6,28.2,29.76,WNW,292,0.0,0.0,66,0.00,,CLR,0.00,0.00,VWS V14.01,2013-10-24 09:10:00,
2013-10-24 05:15:00,38.6,28.2,29.76,WNW,292,0.0,0.0,66,0.00,,CLR,0.00,0.00,VWS V14.01,2013-10-24 09:15:00,
2013-10-24 05:20:00,38.6,28.2,29.76,WNW,292,0.0,0.0,66,0.00,,CLR,0.00,0.00,VWS V14.01,2013-10-24 09:20:00,
2013-10-24 05:25:00,38.6,28.2,29.76,WNW,292,0.0,0.0,66,0.00,,CLR,0.00,0.00,VWS V14.01,2013-10-24 09:25:00,
2013-10-24 05:30:00,38.6,28.2,29.77,WNW,292,0.0,0.0,66,0.00,,CLR,0.00,0.00,VWS V14.01,2013-10-24 09:30:00,
2013-10-24 05:35:00,38.6,28.2,29.77,WNW,292,0.0,0.0,66,0.00,,CLR,0.00,0.00,VWS V14.01,2013-10-24 09:35:00,
2013-10-24 05:40:00,38.6,28.2,29.77,WNW,292,0.0,0.0,66,0.00,,CLR,0.00,0.00,VWS V14.01,2013-10-24 09:40:00,
2013-10-24 05:45:00,38.6,28.2,29.77,WNW,292,0.0,0.0,66,0.00,,CLR,0.00,0.00,VWS V14.01,2013-10-24 09:45:00,
2013-10-24 05:50:00,38.6,28.2,29.77,WNW,292,0.0,0.0,66,0.00,,CLR,0.00,0.00,VWS V14.01,2013-10-24 09:50:00,
2013-10-24 05:55:00,38.6,28.2,29.77,WNW,292,0.0,0.0,66,0.00,,CLR,0.00,0.00,VWS V14.01,2013-10-24 09:55:00,
2013-10-24 06:00:00,38.6,28.2,29.78,WNW,292,0.0,0.0,66,0.00,,CLR,0.00,0.00,VWS V14.01,2013-10-24 10:00:00,
2013-10-24 06:05:00,38.6,28.2,29.78,WNW,292,0.0,0.0,66,0.00,,CLR,0.00,0.00,VWS V14.01,2013-10-24 10:05:00,
2013-10-24 06:10:00,38.6,28.2,29.78,WNW,292,0.0,0.0,66,0.00,,CLR,0.00,0.00,VWS V14.01,2013-10-24 10:10:00,
2013-10-24 06:15:00,38.6,28.2,29.78,WNW,292,0.0,0.0,66,0.00,,CLR,0.00,0.00,VWS V14.01,2013-10-24 10:15:00,
2013-10-24 06:20:00,38.6,28.2,29.78,WNW,292,0.0,0.0,66,0.00,,CLR,0.00,0.00,VWS V14.01,2013-10-24 10:20:00,
2013-10-24 06:25:00,38.6,28.2,29.78,WNW,292,0.0,0.0,66,0.00,,CLR,0.00,0.00,VWS V14.01,2013-10-24 10:25:00,
2013-10-24 06:30:00,38.6,28.2,29.79,WNW,292,0.0,0.0,66,0.00,,CLR,0.00,0.00,VWS V14.01,2013-10-24 10:30:00,
2013-10-24 06:35:00,38.6,28.2,29.79,WNW,292,0.0,0.0,66,0.00,,CLR,0.00,0.00,VWS V14.01,2013-10-24 10:35:00,
2013-10-24 06:40:00,38.6,28.2,29.79,WNW,292,0.0,0.0,66,0.00,,CLR,0.00,0.00,VWS V14.01,2013-10-24 10:40:00,
2013-10-24 06:45:00,38.6,28.2,29.79,WNW,292,0.0,0.0,66,0.00,,CLR,0.00,0.00,VWS V14.01,2013-10-24 10:45:00,
2013-10-24 06:50:00,38.6,28.2,29.79,WNW,292,0.0,0.0,66,0.00,,CLR,0.00,0.00,VWS V14.01,2013-10-24 10:50:00,
2013-10-24 06:55:00,38.6,28.2,29.79,WNW,292,0.0,0.0,66,0.00,,CLR,0.00,0.00,VWS V14.01,2013-10-24 10:55:00,
2013-10-24 07:00:00,38.6,28.2,29.79,WNW,292,0.0,0.0,66,0.00,,CLR,0.00,0.00,VWS V14.01,2013-10-24 11:00:00,
2013-10-24 07:05:00,38.6,28.2,29.79,WNW,292,0.0,0.0,66,0.00,,CLR,0.00,0.00,VWS V14.01,2013-10-24 11:05:00,
2013-10-24 07:10:00,38.6,28.2,29.79,WNW,292,0.0,0.0,66,0.00,,CLR,0.00,0.00,VWS V14.01,2013-10-24 11:10:00,
2013-10-24 07:15:00,38.6,28.2,29.80,WNW,292,0.0,0.0,66,0.00,,CLR,0.00,0.00,VWS V14.01,2013-10-24 11:15:00,
2013-10-24 07:20:00,38.6,28.2,29.80,WNW,292,0.0,0.0,66,0.00,,CLR,0.00,0.00,VWS V14.01,2013-10-24 11:20:00,
2013-10-24 07:25:00,38.6,28.2,29.80,WNW,292,0.0,0.0,66,0.00,,CLR,0.00,0.00,VWS V14.01,2013-10-24 11:25:00,
2013-10-24 07:30:00,38.6,28.2,29.80,WNW,292,0.0,0.0,66,0.00,,CLR,0.00,0.00,VWS V14.01,2013-10-24 11:30:00,
2013-10-24 07:35:00,38.6,28.2,29.80,WNW,292,0.0,0.0,66,0.00,,CLR,0.00,0.00,VWS V14.01,2013-10-24 11:35:00,
2013-10-24 07:40:00,38.6,28.2,29.80,WNW,292,0.0,0.0,66,0.00,,CLR,0.00,0.00,VWS V14.01,2013-10-24 11:40:00,
2013-10-24 07:45:00,38.6,28.2,29.81,WNW,292,0.0,0.0,66,0.00,,CLR,0.00,0.00,VWS V14.01,2013-10-24 11:45:00,
2013-10-24 07:50:00,38.6,28.2,29.81,WNW,292,0.0,0.0,66,0.00,,CLR,0.00,0.00,VWS V14.01,2013-10-24 11:50:00,
2013-10-24 07:55:00,38.6,28.2,29.81,WNW,292,0.0,0.0,66,0.00,,CLR,0.00,0.00,VWS V14.01,2013-10-24 11:55:00,
2013-10-24 08:00:00,38.6,28.2,29.81,WNW,292,0.0,0.0,66,0.00,,CLR,0.00,0.00,VWS V14.01,2013-10-24 12:00:00,
2013-10-24 08:05:00,38.6,28.2,29.81,WNW,292,0.0,0.0,66,0.00,,CLR,0.00,0.00,VWS V14.01,2013-10-24 12:05:00,
2013-10-24 08:10:00,38.6,28.2,29.81,WNW,292,0.0,0.0,66,0.00,,CLR,0.00,0.00,VWS V14.01,2013-10-24 12:10:00,
2013-10-24 08:15:00,38.6,28.2,29.82,WNW,292,0.0,0.0,66,0.00,,CLR,0.00,0.00,VWS V14.01,2013-10-24 12:15:00,
2013-10-24 08:20:00,38.6,28.2,29.82,WNW,292,0.0,0.0,66,0.00,,CLR,0.00,0.00,VWS V14.01,2013-10-24 12:20:00,
2013-10-24 08:25:00,38.6,28.2,29.82,WNW,292,0.0,0.0,66,0.00,,CLR,0.00,0.00,VWS V14.01,2013-10-24 12:25:00,
2013-10-24 08:30:00,38.6,28.2,29.83,WNW,292,0.0,0.0,66,0.00,,CLR,0.00,0.00,VWS V14.01,2013-10-24 12:30:00,
2013-10-24 08:35:00,38.6,28.2,29.83,WNW,292,0.0,0.0,66,0.00,,CLR,0.00,0.00,VWS V14.01,2013-10-24 12:35:00,
2013-10-24 08:40:00,38.6,28.2,29.83,WNW,292,0.0,0.0,66,0.00,,CLR,0.00,0.00,VWS V14.01,2013-10-24 12:40:00,
2013-10-24 08:45:00,38.6,28.2,29.83,WNW,292,0.0,0.0,66,0.00,,CLR,0.00,0.00,VWS V14.01,2013-10-24 12:45:00,
2013-10-24 08:50:00,38.6,28.2,29.83,WNW,292,0.0,0.0,66,0.00,,CLR,0.00,0.00,VWS V14.01,2013-10-24 12:50:00,
2013-10-24 08:55:00,38.6,28.2,29.83,WNW,292,0.0,0.0,66,0.00,,CLR,0.00,0.00,VWS V14.01,2013-10-24 12:55:00,
2013-10-24 09:00:00,38.6,28.2,29.83,WNW,292,0.0,0.0,66,0.00,,CLR,0.00,0.00,VWS V14.01,2013-10-24 13:00:00,
2013-10-24 09:05:00,38.6,28.2,29.83,WNW,292,0.0,0.0,66,0.00,,CLR,0.00,0.00,VWS V14.01,2013-10-24 13:05:00,
2013-10-24 09:10:00,38.6,28.2,29.83,WNW,292,0.0,0.0,66,0.00,,CLR,0.00,0.00,VWS V14.01,2013-10-24 13:10:00,
2013-10-24 09:15:00,38.6,28.2,29.83,WNW,292,0.0,0.0,66,0.00,,CLR,0.00,0.00,VWS V14.01,2013-10-24 13:15:00,
2013-10-24 09:20:00,38.6,28.2,29.83,WNW,292,0.0,0.0,66,0.00,,CLR,0.00,0.00,VWS V14.01,2013-10-24 13:20:00,
2013-10-24 09:25:00,38.6,28.2,29.83,WNW,292,0.0,0.0,66,0.00,,CLR,0.00,0.00,VWS V14.01,2013-10-24 13:25:00,
2013-10-24 09:30:00,38.6,28.2,29.83,WNW,292,0.0,0.0,66,0.00,,CLR,0.00,0.00,VWS V14.01,2013-10-24 13:30:00,
2013-10-24 09:35:00,38.6,28.2,29.83,WNW,292,0.0,0.0,66,0.00,,CLR,0.00,0.00,VWS V14.01,2013-10-24 13:35:00,
2013-10-24 09:40:00,38.6,28.2,29.83,WNW,292,0.0,0.0,66,0.00,,CLR,0.00,0.00,VWS V14.01,2013-10-24 13:40:00,
2013-10-24 09:45:00,38.6,28.2,29.83,WNW,292,0.0,0.0,66,0.00,,CLR,0.00,0.00,VWS V14.01,2013-10-24 13:45:00,
2013-10-24 09:50:00,38.6,28.2,29.83,WNW,292,0.0,0.0,66,0.00,,CLR,0.00,0.00,VWS V14.01,2013-10-24 13:50:00,
2013-10-24 09:55:00,38.6,28.2,29.83,WNW,292,0.0,0.0,66,0.00,,CLR,0.00,0.00,VWS V14.01,2013-10-24 13:55:00,
2013-10-24 10:00:00,38.6,28.2,29.83,WNW,292,0.0,0.0,66,0.00,,CLR,0.00,0.00,VWS V14.01,2013-10-24 14:00:00,
2013-10-24 10:05:00,38.6,28.2,29.83,WNW,292,0.0,0.0,66,0.00,,CLR,0.00,0.00,VWS V14.01,2013-10-24 14:05:00,
2013-10-24 10:10:00,38.6,28.2,29.83,WNW,292,0.0,0.0,66,0.00,,CLR,0.00,0.00,VWS V14.01,2013-10-24 14:10:00,
2013-10-24 10:15:00,38.6,28.2,29.83,WNW,292,0.0,0.0,66,0.00,,CLR,0.00,0.00,VWS V14.01,2013-10-24 14:15:00,
2013-10-24 10:20:00,38.6,28.2,29.83,WNW,292,0.0,0.0,66,0.00,,CLR,0.00,0.00,VWS V14.01,2013-10-24 14:20:00,
2013-10-24 10:25:00,38.6,28.2,29.83,WNW,292,0.0,0.0,66,0.00,,CLR,0.00,0.00,VWS V14.01,2013-10-24 14:25:00,
2013-10-24 10:30:00,38.6,28.2,29.83,WNW,292,0.0,0.0,66,0.00,,CLR,0.00,0.00,VWS V14.01,2013-10-24 14:30:00,
2013-10-24 10:35:00,38.6,28.2,29.83,WNW,292,0.0,0.0,66,0.00,,CLR,0.00,0.00,VWS V14.01,2013-10-24 14:35:00,
2013-10-24 10:40:00,38.6,28.2,29.83,WNW,292,0.0,0.0,66,0.00,,CLR,0.00,0.00,VWS V14.01,2013-10-24 14:40:00,
2013-10-24 10:45:00,38.6,28.2,29.83,WNW,292,0.0,0.0,66,0.00,,CLR,0.00,0.00,VWS V14.01,2013-10-24 14:45:00,
2013-10-24 10:50:00,38.6,28.2,29.83,WNW,292,0.0,0.0,66,0.00,,CLR,0.00,0.00,VWS V14.01,2013-10-24 14:50:00,
2013-10-24 10:55:00,38.6,28.2,29.83,WNW,292,0.0,0.0,66,0.00,,CLR,0.00,0.00,VWS V14.01,2013-10-24 14:55:00,
2013-10-24 11:00:00,38.6,28.2,29.82,WNW,292,0.0,0.0,66,0.00,,CLR,0.00,0.00,VWS V14.01,2013-10-24 15:00:00,
2013-10-24 11:05:00,38.6,28.2,29.82,WNW,292,0.0,0.0,66,0.00,,CLR,0.00,0.00,VWS V14.01,2013-10-24 15:05:00,
2013-10-24 11:10:00,38.6,28.2,29.82,WNW,292,0.0,0.0,66,0.00,,CLR,0.00,0.00,VWS V14.01,2013-10-24 15:10:00,
2013-10-24 11:15:00,38.6,28.2,29.82,WNW,292,0.0,0.0,66,0.00,,CLR,0.00,0.00,VWS V14.01,2013-10-24 15:15:00,
2013-10-24 11:20:00,38.6,28.2,29.82,WNW,292,0.0,0.0,66,0.00,,CLR,0.00,0.00,VWS V14.01,2013-10-24 15:20:00,
2013-10-24 11:25:00,38.6,28.2,29.82,WNW,292,0.0,0.0,66,0.00,,CLR,0.00,0.00,VWS V14.01,2013-10-24 15:25:00,
2013-10-24 11:30:00,38.6,28.2,29.82,WNW,292,0.0,0.0,66,0.00,,CLR,0.00,0.00,VWS V14.01,2013-10-24 15:30:00,
2013-10-24 11:35:00,38.6,28.2,29.82,WNW,292,0.0,0.0,66,0.00,,CLR,0.00,0.00,VWS V14.01,2013-10-24 15:35:00,
2013-10-24 11:40:00,38.6,28.2,29.82,WNW,292,0.0,0.0,66,0.00,,CLR,0.00,0.00,VWS V14.01,2013-10-24 15:40:00,
2013-10-24 11:45:00,38.6,28.2,29.82,WNW,292,0.0,0.0,66,0.00,,CLR,0.00,0.00,VWS V14.01,2013-10-24 15:45:00,
2013-10-24 11:50:00,38.6,28.2,29.82,WNW,292,0.0,0.0,66,0.00,,CLR,0.00,0.00,VWS V14.01,2013-10-24 15:50:00,
2013-10-24 11:55:00,38.6,28.2,29.82,WNW,292,0.0,0.0,66,0.00,,CLR,0.00,0.00,VWS V14.01,2013-10-24 15:55:00,
2013-10-24 12:00:00,38.6,28.2,29.82,WNW,292,0.0,0.0,66,0.00,,CLR,0.00,0.00,VWS V14.01,2013-10-24 16:00:00,
2013-10-24 12:05:00,38.6,28.2,29.82,WNW,292,0.0,0.0,66,0.00,,CLR,0.00,0.00,VWS V14.01,2013-10-24 16:05:00,
2013-10-24 12:10:00,38.6,28.2,29.82,WNW,292,0.0,0.0,66,0.00,,CLR,0.00,0.00,VWS V14.01,2013-10-24 16:10:00,
2013-10-24 12:15:00,38.6,28.2,29.81,WNW,292,0.0,0.0,66,0.00,,CLR,0.00,0.00,VWS V14.01,2013-10-24 16:15:00,
2013-10-24 12:20:00,38.6,28.2,29.81,WNW,292,0.0,0.0,66,0.00,,CLR,0.00,0.00,VWS V14.01,2013-10-24 16:20:00,
2013-10-24 12:25:00,38.6,28.2,29.81,WNW,292,0.0,0.0,66,0.00,,CLR,0.00,0.00,VWS V14.01,2013-10-24 16:25:00,
2013-10-24 12:30:00,38.6,28.2,29.81,WNW,292,0.0,0.0,66,0.00,,CLR,0.00,0.00,VWS V14.01,2013-10-24 16:30:00,
2013-10-24 12:35:00,38.6,28.2,29.81,WNW,292,0.0,0.0,66,0.00,,CLR,0.00,0.00,VWS V14.01,2013-10-24 16:35:00,
2013-10-24 12:40:00,38.6,28.2,29.81,WNW,292,0.0,0.0,66,0.00,,CLR,0.00,0.00,VWS V14.01,2013-10-24 16:40:00,
2013-10-24 12:45:00,38.6,28.2,29.80,WNW,292,0.0,0.0,66,0.00,,CLR,0.00,0.00,VWS V14.01,2013-10-24 16:45:00,
2013-10-24 12:50:00,38.6,28.2,29.80,WNW,292,0.0,0.0,66,0.00,,CLR,0.00,0.00,VWS V14.01,2013-10-24 16:50:00,
2013-10-24 12:55:00,38.6,28.2,29.80,WNW,292,0.0,0.0,66,0.00,,CLR,0.00,0.00,VWS V14.01,2013-10-24 16:55:00,
2013-10-24 13:00:00,38.6,28.2,29.80,WNW,292,0.0,0.0,66,0.00,,CLR,0.00,0.00,VWS V14.01,2013-10-24 17:00:00,
2013-10-24 13:05:00,38.6,28.2,29.80,WNW,292,0.0,0.0,66,0.00,,CLR,0.00,0.00,VWS V14.01,2013-10-24 17:05:00,
2013-10-24 13:10:00,38.6,28.2,29.80,WNW,292,0.0,0.0,66,0.00,,CLR,0.00,0.00,VWS V14.01,2013-10-24 17:10:00,
2013-10-24 13:15:00,38.6,28.2,29.80,WNW,292,0.0,0.0,66,0.00,,CLR,0.00,0.00,VWS V14.01,2013-10-24 17:15:00,
2013-10-24 13:20:00,38.6,28.2,29.80,WNW,292,0.0,0.0,66,0.00,,CLR,0.00,0.00,VWS V14.01,2013-10-24 17:20:00,
2013-10-24 13:25:00,38.6,28.2,29.80,WNW,292,0.0,0.0,66,0.00,,CLR,0.00,0.00,VWS V14.01,2013-10-24 17:25:00,
2013-10-24 13:30:00,38.6,28.2,29.79,WNW,292,0.0,0.0,66,0.00,,CLR,0.00,0.00,VWS V14.01,2013-10-24 17:30:00,
2013-10-24 13:35:00,38.6,28.2,29.79,WNW,292,0.0,0.0,66,0.00,,CLR,0.00,0.00,VWS V14.01,2013-10-24 17:35:00,
2013-10-24 13:40:00,38.6,28.2,29.79,WNW,292,0.0,0.0,66,0.00,,CLR,0.00,0.00,VWS V14.01,2013-10-24 17:40:00,
2013-10-24 13:45:00,38.6,28.2,29.79,WNW,292,0.0,0.0,66,0.00,,CLR,0.00,0.00,VWS V14.01,2013-10-24 17:45:00,
2013-10-24 13:50:00,38.6,28.2,29.79,WNW,292,0.0,0.0,66,0.00,,CLR,0.00,0.00,VWS V14.01,2013-10-24 17:50:00,
2013-10-24 13:55:00,38.6,28.2,29.79,WNW,292,0.0,0.0,66,0.00,,CLR,0.00,0.00,VWS V14.01,2013-10-24 17:55:00,
2013-10-24 14:00:00,38.6,28.2,29.79,WNW,292,0.0,0.0,66,0.00,,CLR,0.00,0.00,VWS V14.01,2013-10-24 18:00:00,
2013-10-24 14:05:00,38.6,28.2,29.79,WNW,292,0.0,0.0,66,0.00,,CLR,0.00,0.00,VWS V14.01,2013-10-24 18:05:00,
2013-10-24 14:10:00,38.6,28.2,29.79,WNW,292,0.0,0.0,66,0.00,,CLR,0.00,0.00,VWS V14.01,2013-10-24 18:10:00,
2013-10-24 14:15:00,38.6,28.2,29.79,WNW,292,0.0,0.0,66,0.00,,CLR,0.00,0.00,VWS V14.01,2013-10-24 18:15:00,
2013-10-24 14:20:00,38.6,28.2,29.79,WNW,292,0.0,0.0,66,0.00,,CLR,0.00,0.00,VWS V14.01,2013-10-24 18:20:00,
2013-10-24 14:25:00,38.6,28.2,29.79,WNW,292,0.0,0.0,66,0.00,,CLR,0.00,0.00,VWS V14.01,2013-10-24 18:25:00,
2013-10-24 14:30:00,38.6,28.2,29.78,WNW,292,0.0,0.0,66,0.00,,CLR,0.00,0.00,VWS V14.01,2013-10-24 18:30:00,
2013-10-24 14:35:00,38.6,28.2,29.78,WNW,292,0.0,0.0,66,0.00,,CLR,0.00,0.00,VWS V14.01,2013-10-24 18:35:00,
2013-10-24 14:40:00,38.6,28.2,29.78,WNW,292,0.0,0.0,66,0.00,,CLR,0.00,0.00,VWS V14.01,2013-10-24 18:40:00,
2013-10-24 14:45:00,38.6,28.2,29.79,WNW,292,0.0,0.0,66,0.00,,CLR,0.00,0.00,VWS V14.01,2013-10-24 18:45:00,
2013-10-24 14:50:00,38.6,28.2,29.79,WNW,292,0.0,0.0,66,0.00,,CLR,0.00,0.00,VWS V14.01,2013-10-24 18:50:00,
2013-10-24 14:55:00,38.6,28.2,29.79,WNW,292,0.0,0.0,66,0.00,,CLR,0.00,0.00,VWS V14.01,2013-10-24 18:55:00,
2013-10-24 15:00:00,38.6,28.2,29.79,WNW,292,0.0,0.0,66,0.00,,CLR,0.00,0.00,VWS V14.01,2013-10-24 19:00:00,
2013-10-24 15:05:00,38.6,28.2,29.79,WNW,292,0.0,0.0,66,0.00,,CLR,0.00,0.00,VWS V14.01,2013-10-24 19:05:00,
2013-10-24 15:10:00,38.6,28.2,29.79,WNW,292,0.0,0.0,66,0.00,,CLR,0.00,0.00,VWS V14.01,2013-10-24 19:10:00,
2013-10-24 15:15:00,38.6,28.2,29.79,WNW,292,0.0,0.0,66,0.00,,CLR,0.00,0.00,VWS V14.01,2013-10-24 19:15:00,
2013-10-24 15:20:00,38.6,28.2,29.79,WNW,292,0.0,0.0,66,0.00,,CLR,0.00,0.00,VWS V14.01,2013-10-24 19:20:00,
2013-10-24 15:25:00,38.6,28.2,29.79,WNW,292,0.0,0.0,66,0.00,,CLR,0.00,0.00,VWS V14.01,2013-10-24 19:25:00,
2013-10-24 15:30:00,38.6,28.2,29.79,WNW,292,0.0,0.0,66,0.00,,CLR,0.00,0.00,VWS V14.01,2013-10-24 19:30:00,
2013-10-24 15:35:00,38.6,28.2,29.79,WNW,292,0.0,0.0,66,0.00,,CLR,0.00,0.00,VWS V14.01,2013-10-24 19:35:00,
2013-10-24 15:40:00,38.6,28.2,29.79,WNW,292,0.0,0.0,66,0.00,,CLR,0.00,0.00,VWS V14.01,2013-10-24 19:40:00,
2013-10-24 15:45:00,38.6,28.2,29.79,WNW,292,0.0,0.0,66,0.00,,CLR,0.00,0.00,VWS V14.01,2013-10-24 19:45:00,
2013-10-24 15:50:00,38.6,28.2,29.79,WNW,292,0.0,0.0,66,0.00,,CLR,0.00,0.00,VWS V14.01,2013-10-24 19:50:00,
2013-10-24 15:55:00,38.6,28.2,29.79,WNW,292,0.0,0.0,66,0.00,,CLR,0.00,0.00,VWS V14.01,2013-10-24 19:55:00,
2013-10-24 16:00:00,38.6,28.2,29.80,WNW,292,0.0,0.0,66,0.00,,CLR,0.00,0.00,VWS V14.01,2013-10-24 20:00:00,
2013-10-24 16:05:00,38.6,28.2,29.80,WNW,292,0.0,0.0,66,0.00,,CLR,0.00,0.00,VWS V14.01,2013-10-24 20:05:00,
2013-10-24 16:10:00,38.6,28.2,29.80,WNW,292,0.0,0.0,66,0.00,,CLR,0.00,0.00,VWS V14.01,2013-10-24 20:10:00,
2013-10-24 16:15:00,38.6,28.2,29.80,WNW,292,0.0,0.0,66,0.00,,CLR,0.00,0.00,VWS V14.01,2013-10-24 20:15:00,
2013-10-24 16:20:00,38.6,28.2,29.80,WNW,292,0.0,0.0,66,0.00,,CLR,0.00,0.00,VWS V14.01,2013-10-24 20:20:00,
2013-10-24 16:25:00,38.6,28.2,29.80,WNW,292,0.0,0.0,66,0.00,,CLR,0.00,0.00,VWS V14.01,2013-10-24 20:25:00,
2013-10-24 16:30:00,38.6,28.2,29.81,WNW,292,0.0,0.0,66,0.00,,CLR,0.00,0.00,VWS V14.01,2013-10-24 20:30:00,
2013-10-24 16:35:00,38.6,28.2,29.81,WNW,292,0.0,0.0,66,0.00,,CLR,0.00,0.00,VWS V14.01,2013-10-24 20:35:00,
2013-10-24 16:40:00,38.6,28.2,29.79,WNW,292,0.0,0.0,66,0.00,,-RA,0.00,0.00,VWS V14.01,2013-10-24 20:40:00,
2013-10-24 16:45:00,38.6,28.2,29.79,WNW,292,0.0,0.0,66,0.00,,-RA,0.00,0.00,VWS V14.01,2013-10-24 20:45:00,
2013-10-24 16:50:00,38.6,28.2,29.79,WNW,292,0.0,0.0,66,0.00,,-RA,0.00,0.00,VWS V14.01,2013-10-24 20:50:00,
2013-10-24 16:54:00,38.6,28.2,29.81,West,261,0.0,0.0,66,0.00,,CLR,0.00,0.00,VWS V14.01,2013-10-24 20:54:00,
2013-10-24 16:55:00,38.6,28.2,29.79,WNW,292,0.0,0.0,66,0.00,,-RA,0.00,0.00,VWS V14.01,2013-10-24 20:55:00,
2013-10-24 16:59:00,47.4,36.6,29.81,North,0,7.0,16.0,66,0.00,,CLR,0.00,0.00,VWS V14.01,2013-10-24 20:59:00,
2013-10-24 17:00:00,38.6,28.2,29.80,WNW,292,0.0,0.0,66,0.00,,-RA,0.00,0.00,VWS V14.01,2013-10-24 21:00:00,
2013-10-24 17:04:00,47.6,16.1,29.81,WNW,288,2.0,3.0,28,0.00,,OVC080,0.00,208.00,VWS V14.01,2013-10-24 21:04:00,
2013-10-24 17:05:00,38.6,28.2,29.80,WNW,292,0.0,0.0,66,0.00,,-RA,0.00,0.00,VWS V14.01,2013-10-24 21:05:00,
2013-10-24 17:09:00,47.9,16.4,29.81,SW,229,4.0,10.0,28,0.00,,OVC080,0.00,174.00,VWS V14.01,2013-10-24 21:09:00,
2013-10-24 17:10:00,38.6,28.2,29.80,WNW,292,0.0,0.0,66,0.00,,-RA,0.00,0.00,VWS V14.01,2013-10-24 21:10:00,
2013-10-24 17:14:00,47.7,16.2,29.82,WSW,257,11.0,11.0,28,0.00,,OVC080,0.00,134.00,VWS V14.01,2013-10-24 21:14:00,
2013-10-24 17:15:00,38.6,28.2,29.80,WNW,292,0.0,0.0,66,0.00,,-RA,0.00,0.00,VWS V14.01,2013-10-24 21:15:00,
2013-10-24 17:19:00,47.3,15.9,29.82,WSW,243,7.0,13.0,28,0.00,,OVC080,0.00,114.00,VWS V14.01,2013-10-24 21:19:00,
2013-10-24 17:20:00,38.6,28.2,29.80,WNW,292,0.0,0.0,66,0.00,,-RA,0.00,0.00,VWS V14.01,2013-10-24 21:20:00,
2013-10-24 17:24:00,46.8,15.4,29.82,West,264,2.0,8.0,28,0.00,,OVC080,0.00,100.00,VWS V14.01,2013-10-24 21:24:00,
2013-10-24 17:25:00,38.6,28.2,29.80,WNW,292,0.0,0.0,66,0.00,,-RA,0.00,0.00,VWS V14.01,2013-10-24 21:25:00,
2013-10-24 17:29:00,46.5,14.3,29.82,West,277,7.0,10.0,27,0.00,,OVC080,0.00,40.00,VWS V14.01,2013-10-24 21:29:00,
2013-10-24 17:30:00,38.6,28.2,29.81,WNW,292,0.0,0.0,66,0.00,,-RA,0.00,0.00,VWS V14.01,2013-10-24 21:30:00,
2013-10-24 17:34:00,46.1,14.8,29.82,SW,226,18.0,18.0,28,0.00,,OVC080,0.00,28.00,VWS V14.01,2013-10-24 21:34:00,
2013-10-24 17:35:00,38.6,28.2,29.81,WNW,292,0.0,0.0,66,0.00,,-RA,0.00,0.00,VWS V14.01,2013-10-24 21:35:00,
2013-10-24 17:39:00,45.8,14.6,29.82,WSW,254,2.0,12.0,28,0.00,,OVC080,0.00,21.00,VWS V14.01,2013-10-24 21:39:00,
2013-10-24 17:44:00,45.5,14.3,29.83,SW,220,7.0,9.0,28,0.00,,OVC080,0.00,19.00,VWS V14.01,2013-10-24 21:44:00,
2013-10-24 17:49:00,45.4,14.2,29.83,WSW,243,7.0,7.0,28,0.00,,OVC080,0.00,9.00,VWS V14.01,2013-10-24 21:49:00,
2013-10-24 17:54:00,45.1,14.0,29.83,SW,217,6.0,7.0,28,0.00,,OVC080,0.00,5.00,VWS V14.01,2013-10-24 21:54:00,
2013-10-24 17:55:00,38.6,28.2,29.81,WNW,282,0.0,0.0,66,0.00,,-RA,0.00,0.00,VWS V14.01,2013-10-24 21:55:00,
2013-10-24 17:59:00,44.9,15.4,29.83,WSW,248,0.0,2.0,30,0.00,,OVC080,0.00,0.00,VWS V14.01,2013-10-24 21:59:00,
2013-10-24 18:00:00,47.4,36.6,29.81,NW,313,5.0,16.0,66,0.00,,-RA,0.00,0.00,VWS V14.01,2013-10-24 22:00:00,
2013-10-24 18:04:00,44.6,15.1,29.83,WSW,246,1.0,7.0,30,0.00,,SCT070,0.00,0.00,VWS V14.01,2013-10-24 22:04:00,
2013-10-24 18:05:00,47.7,16.2,29.81,WNW,285,6.0,11.0,28,0.00,,-RA,0.00,208.00,VWS V14.01,2013-10-24 22:05:00,
2013-10-24 18:09:00,44.3,15.6,29.83,WSW,256,2.0,12.0,31,0.00,,SCT070,0.00,0.00,VWS V14.01,2013-10-24 22:09:00,
2013-10-24 18:10:00,47.9,16.4,29.81,SSW,213,3.0,7.0,28,0.00,,-RA,0.00,162.00,VWS V14.01,2013-10-24 22:10:00,
2013-10-24 18:14:00,44.3,15.6,29.84,WSW,248,2.0,11.0,31,0.00,,SCT070,0.00,0.00,VWS V14.01,2013-10-24 22:14:00,
2013-10-24 18:15:00,47.7,16.2,29.82,SW,236,4.0,11.0,28,0.00,,-RA,0.00,130.00,VWS V14.01,2013-10-24 22:15:00,
2013-10-24 18:19:00,44.1,16.1,29.84,SW,217,8.0,8.0,32,0.00,,SCT070,0.00,0.00,VWS V14.01,2013-10-24 22:19:00,
2013-10-24 18:20:00,47.1,15.7,29.82,West,267,11.0,13.0,28,0.00,,-RA,0.00,113.00,VWS V14.01,2013-10-24 22:20:00,
2013-10-24 18:24:00,43.9,16.0,29.84,WSW,237,3.0,7.0,32,0.00,,SCT070,0.00,0.00,VWS V14.01,2013-10-24 22:24:00,
2013-10-24 18:25:00,46.8,15.4,29.82,SW,223,5.0,10.0,28,0.00,,-RA,0.00,97.00,VWS V14.01,2013-10-24 22:25:00,
2013-10-24 18:29:00,43.8,16.6,29.85,WSW,241,2.0,8.0,33,0.00,,SCT070,0.00,0.00,VWS V14.01,2013-10-24 22:29:00,
2013-10-24 18:30:00,46.5,14.3,29.82,WSW,244,5.0,10.0,27,0.00,,-RA,0.00,32.00,VWS V14.01,2013-10-24 22:30:00,
2013-10-24 18:34:00,43.8,16.6,29.85,West,261,6.0,10.0,33,0.00,,SCT070,0.00,0.00,VWS V14.01,2013-10-24 22:34:00,
2013-10-24 18:35:00,46.1,14.8,29.82,WSW,248,7.0,18.0,28,0.00,,-RA,0.00,26.00,VWS V14.01,2013-10-24 22:35:00,
2013-10-24 18:39:00,43.6,17.1,29.85,WSW,257,1.0,6.0,34,0.00,,SCT070,0.00,0.00,VWS V14.01,2013-10-24 22:39:00,
2013-10-24 18:40:00,45.7,14.5,29.82,WSW,239,4.0,8.0,28,0.00,,-RA,0.00,19.00,VWS V14.01,2013-10-24 22:40:00,
2013-10-24 18:44:00,43.6,17.1,29.85,WSW,246,0.0,3.0,34,0.00,,SCT070,0.00,0.00,VWS V14.01,2013-10-24 22:44:00,
2013-10-24 18:45:00,45.5,14.3,29.83,West,275,6.0,12.0,28,0.00,,-RA,0.00,11.00,VWS V14.01,2013-10-24 22:45:00,
2013-10-24 18:49:00,43.1,17.3,29.85,WSW,240,0.0,7.0,35,0.00,,SCT070,0.00,0.00,VWS V14.01,2013-10-24 22:49:00,
2013-10-24 18:50:00,45.2,14.9,29.83,SW,233,1.0,8.0,29,0.00,,-RA,0.00,9.00,VWS V14.01,2013-10-24 22:50:00,
2013-10-24 18:54:00,42.8,17.7,29.85,WSW,237,0.0,3.0,36,0.00,,SCT070,0.00,0.00,VWS V14.01,2013-10-24 22:54:00,
2013-10-24 18:55:00,45.1,14.0,29.83,WSW,251,6.0,7.0,28,0.00,,-RA,0.00,5.00,VWS V14.01,2013-10-24 22:55:00,
2013-10-24 18:59:00,42.6,17.5,29.86,WSW,237,0.0,5.0,36,0.00,,SCT070,0.00,0.00,VWS V14.01,2013-10-24 22:59:00,
2013-10-24 19:00:00,44.8,15.3,29.83,WSW,247,0.0,3.0,30,0.00,,-RA,0.00,0.00,VWS V14.01,2013-10-24 23:00:00,
2013-10-24 19:04:00,42.5,17.4,29.86,WSW,237,0.0,3.0,36,0.00,,CLR,0.00,0.00,VWS V14.01,2013-10-24 23:04:00,
2013-10-24 19:05:00,44.5,15.0,29.83,WSW,239,3.0,7.0,30,0.00,,-RA,0.00,0.00,VWS V14.01,2013-10-24 23:05:00,
2013-10-24 19:09:00,42.3,17.9,29.86,WSW,239,2.0,5.0,37,0.00,,CLR,0.00,0.00,VWS V14.01,2013-10-24 23:09:00,
2013-10-24 19:10:00,44.3,15.6,29.83,WSW,237,6.0,8.0,31,0.00,,-RA,0.00,0.00,VWS V14.01,2013-10-24 23:10:00,
2013-10-24 19:14:00,42.2,17.8,29.87,WSW,258,2.0,5.0,37,0.00,,CLR,0.00,0.00,VWS V14.01,2013-10-24 23:14:00,
2013-10-24 19:15:00,44.3,15.6,29.84,SW,236,5.0,11.0,31,0.00,,-RA,0.00,0.00,VWS V14.01,2013-10-24 23:15:00,
2013-10-24 19:19:00,41.9,18.2,29.87,SSW,206,5.0,6.0,38,0.00,,CLR,0.00,0.00,VWS V14.01,2013-10-24 23:19:00,
2013-10-24 19:20:00,44.1,16.1,29.84,SSW,212,2.0,8.0,32,0.00,,-RA,0.00,0.00,VWS V14.01,2013-10-24 23:20:00,
2013-10-24 19:24:00,41.8,18.1,29.87,SW,223,0.0,6.0,38,0.00,,CLR,0.00,0.00,VWS V14.01,2013-10-24 23:24:00,
2013-10-24 19:25:00,43.9,16.0,29.84,WSW,237,3.0,7.0,32,0.00,,-RA,0.00,0.00,VWS V14.01,2013-10-24 23:25:00,
2013-10-24 19:29:00,41.8,18.7,29.87,WSW,240,1.0,8.0,39,0.00,,CLR,0.00,0.00,VWS V14.01,2013-10-24 23:29:00,
2013-10-24 19:30:00,43.8,16.6,29.85,WSW,241,8.0,10.0,33,0.00,,-RA,0.00,0.00,VWS V14.01,2013-10-24 23:30:00,
2013-10-24 19:34:00,41.8,19.3,29.87,SSW,206,0.0,5.0,40,0.00,,CLR,0.00,0.00,VWS V14.01,2013-10-24 23:34:00,
2013-10-24 19:35:00,43.8,16.6,29.85,West,261,1.0,10.0,33,0.00,,-RA,0.00,0.00,VWS V14.01,2013-10-24 23:35:00,
2013-10-24 19:39:00,41.5,19.6,29.87,SSW,206,0.0,2.0,41,0.00,,CLR,0.00,0.00,VWS V14.01,2013-10-24 23:39:00,
2013-10-24 19:40:00,43.6,17.1,29.85,WSW,257,1.0,1.0,34,0.00,,-RA,0.00,0.00,VWS V14.01,2013-10-24 23:40:00,
2013-10-24 19:44:00,41.2,19.9,29.87,SW,223,2.0,5.0,42,0.00,,CLR,0.00,0.00,VWS V14.01,2013-10-24 23:44:00,
2013-10-24 19:45:00,43.6,17.1,29.85,WSW,244,2.0,3.0,34,0.00,,-RA,0.00,0.00,VWS V14.01,2013-10-24 23:45:00,
2013-10-24 19:49:00,40.9,20.1,29.87,SSW,210,0.0,8.0,43,0.00,,CLR,0.00,0.00,VWS V14.01,2013-10-24 23:49:00,
2013-10-24 19:50:00,43.1,17.3,29.85,WSW,240,0.0,5.0,35,0.00,,-RA,0.00,0.00,VWS V14.01,2013-10-24 23:50:00,
2013-10-24 19:54:00,40.8,20.6,29.87,WSW,246,5.0,10.0,44,0.00,,CLR,0.00,0.00,VWS V14.01,2013-10-24 23:54:00,
2013-10-24 19:55:00,42.8,17.7,29.85,WSW,239,0.0,3.0,36,0.00,,-RA,0.00,0.00,VWS V14.01,2013-10-24 23:55:00,
2013-10-24 19:59:00,40.6,20.9,29.88,SW,222,2.0,6.0,45,0.00,,CLR,0.00,0.00,VWS V14.01,2013-10-24 23:59:00,
2013-10-24 20:00:00,42.6,17.5,29.86,WSW,237,0.0,2.0,36,0.00,,-RA,0.00,0.00,VWS V14.01,2013-10-25 00:00:00,
2013-10-24 20:04:00,40.6,21.5,29.88,SSW,213,0.0,6.0,46,0.00,,CLR,0.00,0.00,VWS V14.01,2013-10-25 00:04:00,
2013-10-24 20:05:00,42.5,18.1,29.86,WSW,237,0.0,1.0,37,0.00,,-RA,0.00,0.00,VWS V14.01,2013-10-25 00:05:00,
2013-10-24 20:09:00,40.3,21.2,29.88,SSW,213,0.0,1.0,46,0.00,,CLR,0.00,0.00,VWS V14.01,2013-10-25 00:09:00,
2013-10-24 20:10:00,42.3,17.9,29.86,WSW,248,2.0,7.0,37,0.00,,-RA,0.00,0.00,VWS V14.01,2013-10-25 00:10:00,
2013-10-24 20:14:00,40.1,21.5,29.88,SSW,213,0.0,3.0,47,0.00,,CLR,0.00,0.00,VWS V14.01,2013-10-25 00:14:00,
2013-10-24 20:15:00,42.2,17.8,29.87,WSW,258,0.0,5.0,37,0.00,,-RA,0.00,0.00,VWS V14.01,2013-10-25 00:15:00,
2013-10-24 20:19:00,39.8,21.7,29.88,SSW,212,1.0,5.0,48,0.00,,CLR,0.00,0.00,VWS V14.01,2013-10-25 00:19:00,
2013-10-24 20:20:00,41.9,18.2,29.87,SSW,206,5.0,6.0,38,0.00,,-RA,0.00,0.00,VWS V14.01,2013-10-25 00:20:00,
2013-10-24 20:24:00,39.5,21.9,29.88,SW,216,3.0,4.0,49,0.00,,CLR,0.00,0.00,VWS V14.01,2013-10-25 00:24:00,
2013-10-24 20:25:00,41.8,18.1,29.87,SW,224,0.0,6.0,38,0.00,,-RA,0.00,0.00,VWS V14.01,2013-10-25 00:25:00,
2013-10-24 20:29:00,39.3,21.8,29.89,SW,215,0.0,2.0,49,0.00,,CLR,0.00,0.00,VWS V14.01,2013-10-25 00:29:00,
2013-10-24 20:30:00,41.8,18.7,29.87,SW,219,4.0,7.0,39,0.00,,-RA,0.00,0.00,VWS V14.01,2013-10-25 00:30:00,
2013-10-24 20:34:00,39.1,22.0,29.89,SW,216,0.0,2.0,50,0.00,,CLR,0.00,0.00,VWS V14.01,2013-10-25 00:34:00,
2013-10-24 20:35:00,41.6,19.1,29.87,SSW,206,3.0,4.0,40,0.00,,-RA,0.00,0.00,VWS V14.01,2013-10-25 00:35:00,
2013-10-24 20:39:00,38.9,21.9,29.89,SW,216,1.0,2.0,50,0.00,,CLR,0.00,0.00,VWS V14.01,2013-10-25 00:39:00,
2013-10-24 20:40:00,41.5,19.6,29.87,SSW,208,0.0,2.0,41,0.00,,-RA,0.00,0.00,VWS V14.01,2013-10-25 00:40:00,
2013-10-24 20:44:00,38.8,22.2,29.89,SW,215,0.0,0.0,51,0.00,,CLR,0.00,0.00,VWS V14.01,2013-10-25 00:44:00,
2013-10-24 20:45:00,41.1,19.8,29.87,SW,223,0.0,5.0,42,0.00,,-RA,0.00,0.00,VWS V14.01,2013-10-25 00:45:00,
2013-10-24 20:49:00,38.6,22.0,29.89,SW,215,0.0,1.0,51,0.00,,CLR,0.00,0.00,VWS V14.01,2013-10-25 00:49:00,
2013-10-24 20:50:00,40.9,20.1,29.87,SSW,210,1.0,7.0,43,0.00,,-RA,0.00,0.00,VWS V14.01,2013-10-25 00:50:00,
2013-10-24 20:54:00,38.6,22.5,29.89,SW,215,0.0,3.0,52,0.00,,CLR,0.00,0.00,VWS V14.01,2013-10-25 00:54:00,
2013-10-24 20:55:00,40.8,20.6,29.87,SW,233,0.0,10.0,44,0.00,,-RA,0.00,0.00,VWS V14.01,2013-10-25 00:55:00,
2013-10-24 20:59:00,38.5,22.4,29.89,SSW,213,0.0,3.0,52,0.00,,CLR,0.00,0.00,VWS V14.01,2013-10-25 00:59:00,
2013-10-24 21:00:00,40.6,20.9,29.88,SW,220,0.0,6.0,45,0.00,,-RA,0.00,0.00,VWS V14.01,2013-10-25 01:00:00,
2013-10-24 21:04:00,38.3,22.2,29.89,SSW,213,0.0,0.0,52,0.00,,CLR,0.00,0.00,VWS V14.01,2013-10-25 01:04:00,
2013-10-24 21:05:00,40.6,21.5,29.88,SSW,213,0.0,1.0,46,0.00,,-RA,0.00,0.00,VWS V14.01,2013-10-25 01:05:00,
2013-10-24 21:09:00,38.3,22.2,29.89,SSW,213,0.0,3.0,52,0.00,,CLR,0.00,0.00,VWS V14.01,2013-10-25 01:09:00,
2013-10-24 21:10:00,40.2,21.1,29.88,SSW,213,0.0,1.0,46,0.00,,-RA,0.00,0.00,VWS V14.01,2013-10-25 01:10:00,
2013-10-24 21:14:00,38.2,22.6,29.90,SSW,213,0.0,5.0,53,0.00,,CLR,0.00,0.00,VWS V14.01,2013-10-25 01:14:00,
2013-10-24 21:15:00,40.1,21.5,29.88,SSW,212,0.0,3.0,47,0.00,,-RA,0.00,0.00,VWS V14.01,2013-10-25 01:15:00,
2013-10-24 21:19:00,38.2,22.1,29.90,SW,219,0.0,3.0,52,0.00,,CLR,0.00,0.00,VWS V14.01,2013-10-25 01:19:00,
2013-10-24 21:20:00,39.8,21.7,29.88,SSW,212,0.0,5.0,48,0.00,,-RA,0.00,0.00,VWS V14.01,2013-10-25 01:20:00,
2013-10-24 21:24:00,38.3,22.2,29.90,SW,223,0.0,3.0,52,0.00,,CLR,0.00,0.00,VWS V14.01,2013-10-25 01:24:00,
2013-10-24 21:25:00,39.5,21.9,29.88,SW,216,0.0,4.0,49,0.00,,-RA,0.00,0.00,VWS V14.01,2013-10-25 01:25:00,
2013-10-24 21:29:00,38.2,22.1,29.90,SW,233,6.0,7.0,52,0.00,,CLR,0.00,0.00,VWS V14.01,2013-10-25 01:29:00,
2013-10-24 21:30:00,39.3,21.8,29.89,SW,215,0.0,0.0,49,0.00,,-RA,0.00,0.00,VWS V14.01,2013-10-25 01:30:00,
2013-10-24 21:34:00,38.3,22.2,29.90,SW,226,0.0,2.0,52,0.00,,CLR,0.00,0.00,VWS V14.01,2013-10-25 01:34:00,
2013-10-24 21:35:00,39.1,22.0,29.89,SW,215,2.0,2.0,50,0.00,,-RA,0.00,0.00,VWS V14.01,2013-10-25 01:35:00,
2013-10-24 21:39:00,38.5,22.4,29.90,SW,219,0.0,5.0,52,0.00,,CLR,0.00,0.00,VWS V14.01,2013-10-25 01:39:00,
2013-10-24 21:40:00,38.9,22.3,29.89,SW,215,0.0,2.0,51,0.00,,-RA,0.00,0.00,VWS V14.01,2013-10-25 01:40:00,
2013-10-24 21:44:00,38.5,22.4,29.90,WSW,239,0.0,6.0,52,0.00,,CLR,0.00,0.00,VWS V14.01,2013-10-25 01:44:00,
2013-10-24 21:45:00,38.8,22.2,29.89,SW,215,0.0,0.0,51,0.00,,-RA,0.00,0.00,VWS V14.01,2013-10-25 01:45:00,
2013-10-24 21:49:00,38.8,22.2,29.90,SSW,198,10.0,10.0,51,0.00,,CLR,0.00,0.00,VWS V14.01,2013-10-25 01:49:00,
2013-10-24 21:50:00,38.6,22.0,29.89,SW,215,2.0,3.0,51,0.00,,-RA,0.00,0.00,VWS V14.01,2013-10-25 01:50:00,
2013-10-24 21:54:00,38.9,21.9,29.90,SW,234,0.0,5.0,50,0.00,,CLR,0.00,0.00,VWS V14.01,2013-10-25 01:54:00,
2013-10-24 21:55:00,38.5,22.4,29.89,SSW,213,0.0,2.0,52,0.00,,-RA,0.00,0.00,VWS V14.01,2013-10-25 01:55:00,
2013-10-24 21:59:00,38.9,21.9,29.90,WSW,258,0.0,0.0,50,0.00,,CLR,0.00,0.00,VWS V14.01,2013-10-25 01:59:00,
2013-10-24 22:00:00,38.5,22.4,29.89,SSW,213,0.0,3.0,52,0.00,,-RA,0.00,0.00,VWS V14.01,2013-10-25 02:00:00,
2013-10-24 22:04:00,38.9,21.9,29.90,SW,224,0.0,3.0,50,0.00,,CLR,0.00,0.00,VWS V14.01,2013-10-25 02:04:00,
2013-10-24 22:05:00,38.3,22.2,29.89,SSW,213,2.0,2.0,52,0.00,,-RA,0.00,0.00,VWS V14.01,2013-10-25 02:05:00,
2013-10-24 22:09:00,38.9,21.9,29.90,SW,224,0.0,0.0,50,0.00,,CLR,0.00,0.00,VWS V14.01,2013-10-25 02:09:00,
2013-10-24 22:10:00,38.2,22.1,29.89,SSW,213,1.0,2.0,52,0.00,,-RA,0.00,0.00,VWS V14.01,2013-10-25 02:10:00,
2013-10-24 22:14:00,38.9,21.9,29.90,SW,236,0.0,3.0,50,0.00,,CLR,0.00,0.00,VWS V14.01,2013-10-25 02:14:00,
2013-10-24 22:15:00,38.2,22.6,29.90,SSW,213,0.0,4.0,53,0.00,,-RA,0.00,0.00,VWS V14.01,2013-10-25 02:15:00,
2013-10-24 22:19:00,38.8,21.8,29.91,SW,222,2.0,3.0,50,0.00,,CLR,0.00,0.00,VWS V14.01,2013-10-25 02:19:00,
2013-10-24 22:20:00,38.2,22.1,29.90,SW,217,1.0,2.0,52,0.00,,-RA,0.00,0.00,VWS V14.01,2013-10-25 02:20:00,
2013-10-24 22:24:00,38.8,21.8,29.91,SSW,210,3.0,4.0,50,0.00,,CLR,0.00,0.00,VWS V14.01,2013-10-25 02:24:00,
2013-10-24 22:25:00,38.3,22.2,29.90,SW,223,0.0,3.0,52,0.00,,-RA,0.00,0.00,VWS V14.01,2013-10-25 02:25:00,
2013-10-24 22:29:00,38.8,21.3,29.91,WSW,254,2.0,8.0,49,0.00,,CLR,0.00,0.00,VWS V14.01,2013-10-25 02:29:00,
2013-10-24 22:30:00,38.2,22.6,29.90,SW,232,0.0,7.0,53,0.00,,-RA,0.00,0.00,VWS V14.01,2013-10-25 02:30:00,
2013-10-24 22:34:00,38.9,21.4,29.91,SW,222,2.0,5.0,49,0.00,,CLR,0.00,0.00,VWS V14.01,2013-10-25 02:34:00,
2013-10-24 22:35:00,38.3,22.2,29.90,SW,215,7.0,7.0,52,0.00,,-RA,0.00,0.00,VWS V14.01,2013-10-25 02:35:00,
2013-10-24 22:39:00,38.9,21.4,29.91,WSW,248,3.0,10.0,49,0.00,,CLR,0.00,0.00,VWS V14.01,2013-10-25 02:39:00,
2013-10-24 22:40:00,38.5,22.4,29.90,SW,219,0.0,2.0,52,0.00,,-RA,0.00,0.00,VWS V14.01,2013-10-25 02:40:00,
2013-10-24 22:44:00,38.9,21.4,29.91,SW,215,5.0,5.0,49,0.00,,CLR,0.00,0.00,VWS V14.01,2013-10-25 02:44:00,
2013-10-24 22:45:00,38.5,22.4,29.90,WSW,237,0.0,6.0,52,0.00,,-RA,0.00,0.00,VWS V14.01,2013-10-25 02:45:00,
2013-10-24 22:49:00,39.1,21.6,29.91,SW,217,6.0,10.0,49,0.00,,CLR,0.00,0.00,VWS V14.01,2013-10-25 02:49:00,
2013-10-24 22:50:00,38.8,22.2,29.90,WSW,243,2.0,10.0,51,0.00,,-RA,0.00,0.00,VWS V14.01,2013-10-25 02:50:00,
2013-10-24 22:54:00,39.1,21.6,29.91,SSW,203,1.0,8.0,49,0.00,,CLR,0.00,0.00,VWS V14.01,2013-10-25 02:54:00,
2013-10-24 22:55:00,38.9,21.9,29.90,WSW,250,5.0,6.0,50,0.00,,-RA,0.00,0.00,VWS V14.01,2013-10-25 02:55:00,
2013-10-24 22:59:00,39.1,21.6,29.91,West,268,2.0,8.0,49,0.00,,CLR,0.00,0.00,VWS V14.01,2013-10-25 02:59:00,
2013-10-24 23:00:00,38.9,21.9,29.90,WSW,258,1.0,1.0,50,0.00,,-RA,0.00,0.00,VWS V14.01,2013-10-25 03:00:00,
2013-10-24 23:04:00,39.1,21.6,29.91,WSW,248,3.0,6.0,49,0.00,,CLR,0.00,0.00,VWS V14.01,2013-10-25 03:04:00,
2013-10-24 23:05:00,38.9,21.9,29.90,SW,224,0.0,3.0,50,0.00,,-RA,0.00,0.00,VWS V14.01,2013-10-25 03:05:00,
2013-10-24 23:09:00,39.1,21.6,29.91,WSW,237,6.0,7.0,49,0.00,,CLR,0.00,0.00,VWS V14.01,2013-10-25 03:09:00,
2013-10-24 23:10:00,38.9,21.9,29.90,SW,230,0.0,5.0,50,0.00,,-RA,0.00,0.00,VWS V14.01,2013-10-25 03:10:00,
2013-10-24 23:14:00,39.1,21.6,29.91,WSW,243,2.0,11.0,49,0.00,,CLR,0.00,0.00,VWS V14.01,2013-10-25 03:14:00,
2013-10-24 23:15:00,38.8,21.8,29.91,SW,236,0.0,0.0,50,0.00,,-RA,0.00,0.00,VWS V14.01,2013-10-25 03:15:00,
2013-10-24 23:19:00,39.1,21.6,29.91,WSW,250,5.0,11.0,49,0.00,,CLR,0.00,0.00,VWS V14.01,2013-10-25 03:19:00,
2013-10-24 23:20:00,38.8,21.8,29.91,SW,222,0.0,3.0,50,0.00,,-RA,0.00,0.00,VWS V14.01,2013-10-25 03:20:00,
2013-10-24 23:24:00,38.9,21.4,29.91,SW,232,2.0,8.0,49,0.00,,CLR,0.00,0.00,VWS V14.01,2013-10-25 03:24:00,
2013-10-24 23:25:00,38.8,21.8,29.91,SSW,212,0.0,6.0,50,0.00,,-RA,0.00,0.00,VWS V14.01,2013-10-25 03:25:00,
2013-10-24 23:29:00,38.8,21.3,29.91,SW,223,6.0,14.0,49,0.00,,CLR,0.00,0.00,VWS V14.01,2013-10-25 03:29:00,
2013-10-24 23:30:00,38.8,21.8,29.91,SSW,192,3.0,10.0,50,0.00,,-RA,0.00,0.00,VWS V14.01,2013-10-25 03:30:00,
2013-10-24 23:34:00,38.8,21.3,29.91,WSW,256,7.0,11.0,49,0.00,,CLR,0.00,0.00,VWS V14.01,2013-10-25 03:34:00,
2013-10-24 23:35:00,38.9,21.4,29.91,SW,215,1.0,3.0,49,0.00,,-RA,0.00,0.00,VWS V14.01,2013-10-25 03:35:00,
2013-10-24 23:39:00,38.6,21.1,29.91,WSW,241,0.0,2.0,49,0.00,,CLR,0.00,0.00,VWS V14.01,2013-10-25 03:39:00,
2013-10-24 23:40:00,38.9,21.4,29.91,SSW,205,3.0,10.0,49,0.00,,-RA,0.00,0.00,VWS V14.01,2013-10-25 03:40:00,
2013-10-24 23:44:00,38.6,21.1,29.91,SW,224,0.0,10.0,49,0.00,,CLR,0.00,0.00,VWS V14.01,2013-10-25 03:44:00,
2013-10-24 23:45:00,38.9,21.4,29.91,SW,227,2.0,8.0,49,0.00,,-RA,0.00,0.00,VWS V14.01,2013-10-25 03:45:00,
2013-10-24 23:49:00,38.6,21.1,29.92,SW,220,7.0,8.0,49,0.00,,CLR,0.00,0.00,VWS V14.01,2013-10-25 03:49:00,
2013-10-24 23:50:00,39.1,21.6,29.91,SW,217,2.0,7.0,49,0.00,,-RA,0.00,0.00,VWS V14.01,2013-10-25 03:50:00,
2013-10-24 23:54:00,38.5,21.5,29.92,WSW,246,0.0,0.0,50,0.00,,CLR,0.00,0.00,VWS V14.01,2013-10-25 03:54:00,
2013-10-24 23:55:00,39.2,21.7,29.91,SW,232,2.0,5.0,49,0.00,,-RA,0.00,0.00,VWS V14.01,2013-10-25 03:55:00,
2013-10-24 23:59:00,38.2,21.7,29.92,SW,226,6.0,10.0,51,0.00,,CLR,0.00,0.00,VWS V14.01,2013-10-25 03:59:00,